Simultaneous Nadir Overpasses (SNOs) Predictions

Prediction of SNOs between AQUA and GOES-15 Satellite Orbit:

Table of predicted SNOs for the next 14.0 days since TLE Epoch: 7/10/2020
Index Date Time (AQUA) AQUA Lat,Lon GOES-15 Lat,Lon Distance(km) Time Diff (sec)
1 07/11/2020 21:52:01 0.82,-124.20 -0.03,-128.30 465.52 80
2 07/12/2020 10:13:18 0.22,-129.37 0.03,-128.36 114.53 80
3 07/14/2020 10:01:07 -0.40,-126.41 0.03,-128.38 223.96 80
4 07/14/2020 22:22:31 -0.69,-131.60 -0.03,-128.33 371.60 80
5 07/16/2020 22:10:20 -0.07,-128.65 -0.02,-128.35 34.02 80
6 07/18/2020 21:58:09 0.57,-125.69 -0.00,-128.36 302.78 80
7 07/19/2020 10:19:25 0.54,-130.85 0.00,-128.42 277.49 80
8 07/21/2020 10:07:14 -0.10,-127.90 -0.01,-128.42 58.44 80
9 07/23/2020 09:55:03 -0.73,-124.94 -0.02,-128.41 394.09 80
10 07/23/2020 22:16:27 -0.35,-130.14 0.02,-128.35 202.52 80
